TOURFACTS.DK  
Stats and Facts from Tour de France.

Tour de France 2019 starts in 320 days
  Riders   Stages   Teams   Summits   Yearly  


 
Search by year

After 2018 - Stage 21:
 15000 starters.
  5165 different riders.
  638 teams.
  2253 stages.
  456 restdays.
  442940.60 km.
  5684 abandonnees.


Top 3
GC
Geraint Thomas83:17:13
Tom Dumoulin83:19:04
Christopher Froome83:19:37
Climb
Julian Alaphilippe170 pt.
Warren Barguil91 pt.
Rafal Majka76 pt.
Sprint
Peter Sagan477 pt.
Alexander Kristoff246 pt.
Arnaud Démare203 pt.
Youth
Pierre-Roger Latou..83:39:26
Egan Bernal83:45:05
Guillaume Martin84:01:31
Facts from Tour de France 2017
  |   Stages.  |   Stage winners.  |   Days in yellow  |   Average speed.  |   Route.  |   Teams.  |   All riders.  |   Rookies.  |  

  |   Withdrawls.  |   GC.  |   Polka  |   Green  |   White  |   Summits. (In tour)  |   Miscellaneous.  |  

Stage 1 on 01 - 07 - 2017
         Owning:    Geraint Thomas      Geraint Thomas      Stefan Küng  

Pick a stage:  1 2 3 4 5 6 7 8 9 10 11 12 13 14 15 16 17 18 19 20 21
  DüsseldorfDüsseldorf | Dist: 14.00 km.

Average speed for all riders in stage:  48,874 km./hr.
    Place:Name:Team:Time:Km/h:
1
WALGeraint ThomasGBRSky Procycling00:16:04  +  00:00:00=52,282 
2
SUIStefan KüngUSABMC Racing Team00:16:09  +  00:00:05=52,012 
3
BLRVasil KiryienkaGBRSky Procycling00:16:11  +  00:00:07=51,905 
44 GERTony MartinCHETeam Katusha - Alpecin00:16:12  +  00:00:08=51,852 
55 ITAMatteo TrentinBELQuick-Step Floors00:16:14  +  00:00:10=51,745 
66 KENChristopher FroomeGBRSky Procycling00:16:16  +  00:00:12=51,639 
77 NEDJos Van EmdenNLDTeam Lotto NL - Jumbo00:16:19  +  00:00:15=51,481 
88 POLMichal KwiatkowskiGBRSky Procycling00:16:19  +  00:00:15=51,481 
99 GERMarcel KittelBELQuick-Step Floors00:16:20  +  00:00:16=51,429 
1010 NOREdvald Boasson HagenZAFDimension Data00:16:20  +  00:00:16=51,429 
1111 GERNikias ArndtDEUTeam Sunweb00:16:20  +  00:00:16=51,429 
1212 USATaylor PhinneyUSACannondale-Drapac Pro Cycling ..00:16:21  +  00:00:17=51,376 
1313 UKRAndriy GrivkoKAZAstana Pro Team00:16:21  +  00:00:17=51,376 
1414 RSADaryl ImpeyAUSOrica - Scott00:16:23  +  00:00:19=51,272 
1515 ESPJonathan CastroviejoESPMovistar Team00:16:24  +  00:00:20=51,220 
1616 AUSMichael MatthewsDEUTeam Sunweb00:16:24  +  00:00:20=51,220 
1717 FRAPierre-Roger LatourFRAAg2r La Mondiale00:16:29  +  00:00:25=50,961 
1818 SVKPeter SaganDEUBora–Hansgrohe00:16:29  +  00:00:25=50,961 
1919 CRCAndrey AmadorESPMovistar Team00:16:31  +  00:00:27=50,858 
2020 KAZAlexey LutsenkoKAZAstana Pro Team00:16:33  +  00:00:29=50,755 
2121 BELPhilippe GilbertBELQuick-Step Floors00:16:34  +  00:00:30=50,704 
2222 NEDRobert GesinkNLDTeam Lotto NL - Jumbo00:16:35  +  00:00:31=50,653 
2323 ITASonny ColbrelliBHRBahrain-Merida00:16:36  +  00:00:32=50,602 
2424 BELTim WellensBELLotto Soudal00:16:36  +  00:00:32=50,602 
2525 POLMaciej BodnarDEUBora–Hansgrohe00:16:37  +  00:00:33=50,552 
2626 NEDTimo RoosenNLDTeam Lotto NL - Jumbo00:16:38  +  00:00:34=50,501 
2727 NORAlexander KristoffCHETeam Katusha - Alpecin00:16:40  +  00:00:36=50,400 
2828 SUIReto HollensteinCHETeam Katusha - Alpecin00:16:40  +  00:00:36=50,400 
2929 ENGSimon YatesAUSOrica - Scott00:16:41  +  00:00:37=50,350 
3030 ITAFabio FellineUSATrek - Segafredo00:16:41  +  00:00:37=50,350 
3131 CZEZdenek StybarBELQuick-Step Floors00:16:43  +  00:00:39=50,249 
3232 ITAAlessandro De MarchiUSABMC Racing Team00:16:43  +  00:00:39=50,249 
3333 GEREmanuel BuchmannDEUBora–Hansgrohe00:16:44  +  00:00:40=50,199 
3434 GERPaul MartensNLDTeam Lotto NL - Jumbo00:16:44  +  00:00:40=50,199 
3535 ESPJesus HerradaESPMovistar Team00:16:44  +  00:00:40=50,199 
3636 GERJasha SütterlinESPMovistar Team00:16:45  +  00:00:41=50,149 
3737 NEDMike TeunissenDEUTeam Sunweb00:16:45  +  00:00:41=50,149 
3838 GERNils PolittCHETeam Katusha - Alpecin00:16:45  +  00:00:41=50,149 
3939 BELGreg Van AvermaetUSABMC Racing Team00:16:46  +  00:00:42=50,099 
4040 SUIMichael AlbasiniAUSOrica - Scott00:16:46  +  00:00:42=50,099 
4141 AUSDamien HowsonAUSOrica - Scott00:16:47  +  00:00:43=50,050 
4242 ITADiego UlissiUAEUAE Team Emirates00:16:47  +  00:00:43=50,050 
4343 SUIMichael SchärUSABMC Racing Team00:16:48  +  00:00:44=50,000 
4444 NEDDylan Van BaarleUSACannondale-Drapac Pro Cycling ..00:16:48  +  00:00:44=50,000 
4545 GERRobert WagnerNLDTeam Lotto NL - Jumbo00:16:49  +  00:00:45=49,950 
4646 URSIgnatas KonovalovasFRAFDJ00:16:50  +  00:00:46=49,901 
4747 GERSimon GeschkeDEUTeam Sunweb00:16:50  +  00:00:46=49,901 
4848 ITADamiano CarusoUSABMC Racing Team00:16:51  +  00:00:47=49,852 
4949 AUSRichie PorteUSABMC Racing Team00:16:51  +  00:00:47=49,852 
5050 ESPImanol ErvitiESPMovistar Team00:16:52  +  00:00:48=49,802 
5151 FRASylvain ChavanelFRADirect Energie00:16:52  +  00:00:48=49,802 
5252 COLJarlinson Pantano GomezUSATrek - Segafredo00:16:52  +  00:00:48=49,802 
5353 COLNairo QuintanaESPMovistar Team00:16:52  +  00:00:48=49,802 
5454 POLRafal MajkaDEUBora–Hansgrohe00:16:53  +  00:00:49=49,753 
5555 USAAndrew TalanskyUSACannondale-Drapac Pro Cycling ..00:16:53  +  00:00:49=49,753 
5656 NZLJack BauerBELQuick-Step Floors00:16:53  +  00:00:49=49,753 
5757 ENGDaniel MartinBELQuick-Step Floors00:16:53  +  00:00:49=49,753 
5858 GERJohn DegenkolbUSATrek - Segafredo00:16:53  +  00:00:49=49,753 
5959 FRAArnaud DémareFRAFDJ00:16:53  +  00:00:49=49,753 
6060 FRAThibaut PinotFRAFDJ00:16:54  +  00:00:50=49,704 
6161 FRARomain SicardFRADirect Energie00:16:54  +  00:00:50=49,704 
6262 NEDAlbert TimmerDEUTeam Sunweb00:16:55  +  00:00:51=49,655 
6363 FRARomain BardetFRAAg2r La Mondiale00:16:55  +  00:00:51=49,655 
6464 ITAAlberto BettiolUSACannondale-Drapac Pro Cycling ..00:16:56  +  00:00:52=49,606 
6565 SLOPrimoz RoglicNLDTeam Lotto NL - Jumbo00:16:56  +  00:00:52=49,606 
6666 ITAFabio AruKAZAstana Pro Team00:16:56  +  00:00:52=49,606 
6767 FRALilian CalmejaneFRADirect Energie00:16:57  +  00:00:53=49,558 
6868 ESPAlberto ContadorUSATrek - Segafredo00:16:58  +  00:00:54=49,509 
6969 COLCarlos Alberto BetancurESPMovistar Team00:16:58  +  00:00:54=49,509 
7070 SUIJakob FuglsangKAZAstana Pro Team00:16:58  +  00:00:54=49,509 
7171 NEDKoen De KortUSATrek - Segafredo00:16:58  +  00:00:54=49,509 
7272 KAZDmitriy GruzdevKAZAstana Pro Team00:16:58  +  00:00:54=49,509 
7373 DENMichael ValgrenKAZAstana Pro Team00:16:59  +  00:00:55=49,460 
7474 ITADario CataldoKAZAstana Pro Team00:16:59  +  00:00:55=49,460 
7575 ENGStephen CummingsZAFDimension Data00:17:00  +  00:00:56=49,412 
7676 ITADaniele BennatiESPMovistar Team00:17:00  +  00:00:56=49,412 
7777 GERChristian KneesGBRSky Procycling00:17:00  +  00:00:56=49,412 
7878 CZERoman KreuzigerAUSOrica - Scott00:17:00  +  00:00:56=49,412 
7979 GERAndré GreipelBELLotto Soudal00:17:01  +  00:00:57=49,363 
8080 BELJulien VermoteBELQuick-Step Floors00:17:02  +  00:00:58=49,315 
8181 FRAWarren BarguilDEUTeam Sunweb00:17:03  +  00:00:59=49,267 
8282 FRARudy MolardFRAFDJ00:17:03  +  00:00:59=49,267 
8383 FRAPierre-Luc PérichonFRAFortuneo - Vital Concept00:17:03  +  00:00:59=49,267 
8484 DENLars BakBELLotto Soudal00:17:03  +  00:00:59=49,267 
8585 BELJürgen RoelandtsBELLotto Soudal00:17:04  +  00:01:00=49,219 
8686 SUIDanilo WyssUSABMC Racing Team00:17:04  +  00:01:00=49,219 
8787 FRANicolas EdetFRACofidis – Solutions Crédits00:17:04  +  00:01:00=49,219 
8888 AUSMathew HaymanAUSOrica - Scott00:17:05  +  00:01:01=49,171 
8989 FRACyril LemoineFRACofidis – Solutions Crédits00:17:05  +  00:01:01=49,171 
9090 FRAAlexis VuillermozFRAAg2r La Mondiale00:17:06  +  00:01:02=49,123 
9191 AUSSimon ClarkeUSACannondale-Drapac Pro Cycling ..00:17:06  +  00:01:02=49,123 
9292 ESPMarkel IrizarUSATrek - Segafredo00:17:06  +  00:01:02=49,123 
9393 NEDLaurens ten DamDEUTeam Sunweb00:17:07  +  00:01:03=49,075 
9494 NEDMaurits LammertinkCHETeam Katusha - Alpecin00:17:07  +  00:01:03=49,075 
9595 COLRigoberto UránUSACannondale-Drapac Pro Cycling ..00:17:07  +  00:01:03=49,075 
9696 BELJens KeukeleireAUSOrica - Scott00:17:08  +  00:01:04=49,027 
9797 FRAMaxime BouetFRAFortuneo - Vital Concept00:17:08  +  00:01:04=49,027 
9898 PORTiago PintoCHETeam Katusha - Alpecin00:17:08  +  00:01:04=49,027 
9999 BELJan BakelantsFRAAg2r La Mondiale00:17:09  +  00:01:05=48,980 
100100 ESPHaimar ZubeldiaUSATrek - Segafredo00:17:10  +  00:01:06=48,932 
101101 USANathan BrownUSACannondale-Drapac Pro Cycling ..00:17:10  +  00:01:06=48,932 
102102 ESPMikel Landa MeanaGBRSky Procycling00:17:12  +  00:01:08=48,837 
103103 ENGBen SwiftUAEUAE Team Emirates00:17:12  +  00:01:08=48,837 
104104 SUIMathias FrankFRAAg2r La Mondiale00:17:13  +  00:01:09=48,790 
105105 ARGEduardo SepulvedaFRAFortuneo - Vital Concept00:17:13  +  00:01:09=48,790 
106106 RSAReinardt Janse Van RensburgZAFDimension Data00:17:13  +  00:01:09=48,790 
107107 BELSerge PauwelsZAFDimension Data00:17:14  +  00:01:10=48,743 
108108 ETHTsgabu Gebremaryan GrmayBHRBahrain-Merida00:17:14  +  00:01:10=48,743 
109109 AUSJay McCarthyDEUBora–Hansgrohe00:17:14  +  00:01:10=48,743 
110110 AUTMichael GoglUSATrek - Segafredo00:17:14  +  00:01:10=48,743 
111111 GERMarcel SiebergBELLotto Soudal00:17:15  +  00:01:11=48,696 
112112 NORVegard Stake LaengenUAEUAE Team Emirates00:17:15  +  00:01:11=48,696 
113113 RSALouis MeintjesUAEUAE Team Emirates00:17:16  +  00:01:12=48,649 
114114 ENGDaniel McLayFRAFortuneo - Vital Concept00:17:16  +  00:01:12=48,649 
115115 ITAManuele MoriUAEUAE Team Emirates00:17:16  +  00:01:12=48,649 
116116 COLJohan Esteban ChavesAUSOrica - Scott00:17:17  +  00:01:13=48,602 
117117 CZEOndrej CinkBHRBahrain-Merida00:17:17  +  00:01:13=48,602 
118118 NEDRamon SinkeldamDEUTeam Sunweb00:17:17  +  00:01:13=48,602 
119119 LUXBen GastauerFRAAg2r La Mondiale00:17:17  +  00:01:13=48,602 
120120 FRAChristophe LaporteFRACofidis – Solutions Crédits00:17:18  +  00:01:14=48,555 
121121 ITAFabio SabatiniBELQuick-Step Floors00:17:18  +  00:01:14=48,555 
122122 FRANicolas RocheUSABMC Racing Team00:17:18  +  00:01:14=48,555 
123123 BELTiesj BenootBELLotto Soudal00:17:19  +  00:01:15=48,508 
124124 FRAPierre RollandUSACannondale-Drapac Pro Cycling ..00:17:20  +  00:01:16=48,462 
125125 COLSergio Luis HenaoGBRSky Procycling00:17:20  +  00:01:16=48,462 
126126 BELOliver NaesenFRAAg2r La Mondiale00:17:20  +  00:01:16=48,462 
127127 FRAAxel DomontFRAAg2r La Mondiale00:17:20  +  00:01:16=48,462 
128128 GERGianluca BrambillaBELQuick-Step Floors00:17:20  +  00:01:16=48,462 
129129 BELFrederik BackaertBELWanty – Groupe Gobert00:17:21  +  00:01:17=48,415 
130130 FRAFlorian VachonFRAFortuneo - Vital Concept00:17:21  +  00:01:17=48,415 
131131 BELThomas De GendtBELLotto Soudal00:17:21  +  00:01:17=48,415 
132132 NEDBauke MollemaUSATrek - Segafredo00:17:22  +  00:01:18=48,369 
133133 ESPMikel NieveGBRSky Procycling00:17:24  +  00:01:20=48,276 
134134 ESPJavier Moreno BazánBHRBahrain-Merida00:17:24  +  00:01:20=48,276 
135135 FRAOlivier Le GacFRAFDJ00:17:24  +  00:01:20=48,276 
136136 SLOGrega BoleBHRBahrain-Merida00:17:24  +  00:01:20=48,276 
137137 BELDimitri ClaeysFRACofidis – Solutions Crédits00:17:24  +  00:01:20=48,276 
138138 FRAElie GesbertFRAFortuneo - Vital Concept00:17:24  +  00:01:20=48,276 
139139 NEDTom LeezerNLDTeam Lotto NL - Jumbo00:17:24  +  00:01:20=48,276 
140140 ITAMatteo BonoUAEUAE Team Emirates00:17:24  +  00:01:20=48,276 
141141 RSAJaco VenterZAFDimension Data00:17:24  +  00:01:20=48,276 
142142 SLOJanez BrajkovicBHRBahrain-Merida00:17:24  +  00:01:20=48,276 
143143 ITAMarco MarcatoUAEUAE Team Emirates00:17:25  +  00:01:21=48,230 
144144 ITAAndrea PasqualonBELWanty – Groupe Gobert00:17:27  +  00:01:23=48,138 
145145 FRAMickael DelageFRAFDJ00:17:27  +  00:01:23=48,138 
146146 FRAFlorian SénéchalFRACofidis – Solutions Crédits00:17:28  +  00:01:24=48,092 
147147 FRAAmaël MoinardUSABMC Racing Team00:17:29  +  00:01:25=48,046 
148148 FRABrice FeilluFRAFortuneo - Vital Concept00:17:29  +  00:01:25=48,046 
149149 FRAThomas BoudatFRADirect Energie00:17:31  +  00:01:27=47,954 
150150 FRAYohann GèneFRADirect Energie00:17:31  +  00:01:27=47,954 
151151 FRAAngelo TulikFRADirect Energie00:17:31  +  00:01:27=47,954 
152152 KAZBakhtiyar KozhatayevKAZAstana Pro Team00:17:32  +  00:01:28=47,909 
153153 FRAJulien SimonFRACofidis – Solutions Crédits00:17:33  +  00:01:29=47,863 
154154 AUTMarco HallerCHETeam Katusha - Alpecin00:17:33  +  00:01:29=47,863 
155155 FRAYoann OffredoBELWanty – Groupe Gobert00:17:33  +  00:01:29=47,863 
156156 FRAArthur VichotFRAFDJ00:17:33  +  00:01:29=47,863 
157157 BELThomas DegandBELWanty – Groupe Gobert00:17:33  +  00:01:29=47,863 
158158 FRAThomas VoecklerFRADirect Energie00:17:36  +  00:01:32=47,727 
159159 POLPawel PoljanskiDEUBora–Hansgrohe00:17:36  +  00:01:32=47,727 
160160 BELPieter VanspeybrouckBELWanty – Groupe Gobert00:17:40  +  00:01:36=47,547 
161161 SVKJuraj SaganDEUBora–Hansgrohe00:17:41  +  00:01:37=47,502 
162162 NZLGeorge BennettNLDTeam Lotto NL - Jumbo00:17:41  +  00:01:37=47,502 
163163 FRALaurent PichonFRAFortuneo - Vital Concept00:17:43  +  00:01:39=47,413 
164164 SLOBorut BozicBHRBahrain-Merida00:17:44  +  00:01:40=47,368 
165165 ITADavide CimolaiFRAFDJ00:17:44  +  00:01:40=47,368 
166166 DDRRüdiger SeligDEUBora–Hansgrohe00:17:45  +  00:01:41=47,324 
167167 FRAGuillaume MartinBELWanty – Groupe Gobert00:17:46  +  00:01:42=47,280 
168168 AUTBernhard EiselZAFDimension Data00:17:46  +  00:01:42=47,280 
169169 FRACyril GautierFRAAg2r La Mondiale00:17:47  +  00:01:43=47,235 
170170 KAZAndrey ZeitsKAZAstana Pro Team00:17:47  +  00:01:43=47,235 
171171 NEDMarco MinnaardBELWanty – Groupe Gobert00:17:47  +  00:01:43=47,235 
172172 GERMarcus BurghardtDEUBora–Hansgrohe00:17:47  +  00:01:43=47,235 
173173 FRARomain HardyFRAFortuneo - Vital Concept00:17:49  +  00:01:45=47,147 
174174 FRAAdrien PetitFRADirect Energie00:17:49  +  00:01:45=47,147 
175175 JPNYukiya ArashiroBHRBahrain-Merida00:17:50  +  00:01:46=47,103 
176176 IOMMark CavendishZAFDimension Data00:17:50  +  00:01:46=47,103 
177177 FRAPerrig QuemeneurFRADirect Energie00:17:51  +  00:01:47=47,059 
178178 NZLDion SmithBELWanty – Groupe Gobert00:17:51  +  00:01:47=47,059 
179179 ITAJacopo GuarnieriFRAFDJ00:17:52  +  00:01:48=47,015 
180180 NZLPaddy BevinUSACannondale-Drapac Pro Cycling ..00:17:52  +  00:01:48=47,015 
181181 ENGScott ThwaitesZAFDimension Data00:17:54  +  00:01:50=46,927 
182182 WALLuke RoweGBRSky Procycling00:17:54  +  00:01:50=46,927 
183183 AUSMark RenshawZAFDimension Data00:17:54  +  00:01:50=46,927 
184184 BELGuillaume Van KeirsbulckBELWanty – Groupe Gobert00:17:58  +  00:01:54=46,753 
185185 NEDDylan GroenewegenNLDTeam Lotto NL - Jumbo00:17:58  +  00:01:54=46,753 
186186 ESPDaniel NavarroFRACofidis – Solutions Crédits00:18:01  +  00:01:57=46,623 
187187 HRVKristijan DurasekUAEUAE Team Emirates00:18:01  +  00:01:57=46,623 
188188 AUSAdam HansenBELLotto Soudal00:18:03  +  00:01:59=46,537 
189189 NEDRoy CurversDEUTeam Sunweb00:18:16  +  00:02:12=45,985 
190190 GERRick ZabelCHETeam Katusha - Alpecin00:18:16  +  00:02:12=45,985 
191191 HRVRobert KiserlovskiCHETeam Katusha - Alpecin00:18:17  +  00:02:13=45,943 
192192 ESPLuis Angel MateFRACofidis – Solutions Crédits00:18:17  +  00:02:13=45,943 
193193 FRANacer BouhanniFRACofidis – Solutions Crédits00:18:27  +  00:02:23=45,528 
194194 COLDarwin AtapumaUAEUAE Team Emirates00:18:30  +  00:02:26=45,405 
195195 AUSLuke DurbridgeAUSOrica - Scott00:19:05  +  00:03:01=44,017 
196196 FRATony GallopinBELLotto Soudal00:19:07  +  00:03:03=43,941 

Withdrawls: 2
 
Rider
Team
Reason
29  ESPAlejandro ValverdeESPMovistar TeamDid not finish
191  ESPJon Izaguirre InsaustiBHRBahrain-MeridaDid not finish
Todays birthdays.

1878  Jean Novo
1883  Jules Chabas
1890  Ange Aubry
1893  Roger Marye
1913  Paul Maye
1914  Lucien Vlaemynck
1915  Alphonse Antoine
1932  Rolf Graf
1953  Julio Rubiano
1959  Jos Haex
1959  Gerard Veldscholten
1963  Pablo Moreno
1964  Juan Castillo
1977  Iban Mayo
1994  Fernando Gaviria